Regional Weather Roundup
Issued by NWS

Home | Current Version | Previous Version | Text Only | Print | Product List | Glossary On
Versions: 1 2 3 4 5 6 7 8 9 10 11 12 13 14 15 16 17 18 19 20 21 22 23 24 25 26 27 28 29 30 31 32 33 34 35 36 37 38 39 40 41 42 43 44 45 46 47 48 49 50
000
ASUS45 KBOI 281910
RWRID

IDAHO REGIONAL WEATHER ROUNDUP
NATIONAL WEATHER SERVICE BOISE ID
100 PM MDT FRI JUL 28 2017

NOTE: "FAIR" INDICATES FEW OR NO CLOUDS BELOW 12000 FEET
WITH NO SIGNIFICANT WEATHER AND/OR OBSTRUCTIONS TO VISIBILITY

IDZ012-014-282000-
SOUTHWEST IDAHO


CITY           SKY/WX    TMP DP  RH WIND       PRES   REMARKS
BOISE          FAIR      92  53  26 N7        30.02F
CALDWELL       FAIR      89  58  34 N10       30.00F
MOUNTAIN HOME  FAIR      91  52  26 SE13      30.03F
$$

IDZ016-017-282000-
SOUTHCENTRAL IDAHO


CITY           SKY/WX    TMP DP  RH WIND       PRES   REMARKS
BURLEY         FAIR      87  48  25 E8        30.12F
JEROME         FAIR      86  47  25 E9        30.12F
TWIN FALLS     FAIR      85  56  37 NE9       30.12F
$$

IDZ019>023-282000-
SOUTHEAST IDAHO


CITY           SKY/WX    TMP DP  RH WIND       PRES   REMARKS
IDAHO FALLS    CLOUDY    79  53  40 NW5       30.20F
POCATELLO      MOSUNNY   86  47  25 NE6       30.17F
REXBURG        SUNNY     76  51  41 VRB5      30.20F
$$

IDZ006-010-011-018-031-032-282000-
CENTRAL IDAHO MOUNTAINS


CITY           SKY/WX    TMP DP  RH WIND       PRES   REMARKS
MCCALL         FAIR      81  42  25 VRB3      30.16F
HAILEY         MOSUNNY   81  48  32 SE3       30.22F
STANLEY          N/A     76  35  22 VRB5      30.28F
SALMON         NOT AVBL
CHALLIS        FAIR      77  49  37 NE3       30.19F
$$

IDZ002-004-006-007-026-282000-
NORTHERN IDAHO


CITY           SKY/WX    TMP DP  RH WIND       PRES   REMARKS
LEWISTON       FAIR      88  44  21 CALM      29.96F
LOWELL           N/A     89  53  29 CALM      29.94F
COEUR D`ALENE  FAIR      83  48  29 S5        30.04F
MULLAN PASS    FAIR      73  34  23 VRB5      30.24S
$$



USA.gov is the U.S. government's official web portal to all federal, state and local government web resources and services.